NOAA 16 DEB, 41290

Orbit data source: Space-Track

NOAA 16 DEB, 41290 is space debris in SSO originally from a launch on Thu, 21 Sep 2000 UTC launched from the Air Force Western Test Range (AFWTR). Debris objects in space refer to the collection of defunct objects orbiting the Earth. Examples of debris include non-operational satellites, rocket bodies, and fragments generated from explosions, collisions, or faulty payload assembly.

Loading next visibility...
Identifier
41290, 2000-055GS
Orbit
SSO
Country
Flag of USUS
Related business
Manufacturer
Unknown
Mission
Spacecraft
Bus & Motor
Unknown
Mass
Unknown
Launch date (UTC)
2000-09-21 (26 years ago)
Launch vehicle
Unknown
Launch site
Air Force Western Test Range (AFWTR)
Object type
Payload
Rocket body
Debris
Shape & HBR
Unknown shape, 0.1 m
Radar Cross Section
Small (<0.1 m²)

Expand to show TLE details & history
Last TLE update: 2 days ago

TLE from 2 days ago
0 NOAA 16 DEB
1 41290U 00055GS  26171.13665092  .00015085  00000-0  23291-2 0  9993
2 41290  98.9982  59.6550 0015193  81.0402 279.2522 14.73370343547186
Epoch: 2026-06-20T03:16Z
TLE epoch observation values (Epoch: 2026-06-20T03:16:46.639Z)
Latitude
-0.00001°
Longitude
102.10507°
Altitude
651.605 km
Speed
7.533 km/s
True Right ascension
03h 58m 37s
True Declination
0° 00' 00"
Sunlit
Object was in daylight at epoch
Visualization orbit readout
Latitude
Unknown
Longitude
Unknown
Altitude
Unknown
Speed
Unknown
Apparent Right ascension
Unknown
Apparent Declination
Unknown
Sunlit
N/A
Visualization observer readout
Local Sidereal Time
21:35:25
Azimuth
Unknown
Elevation
Unknown
Doppler factor
Unknown
Orbital elements
Apogee altitude
658.105 km
Perigee altitude
636.757 km
Semi-major axis
7,025.568 km
Eccentricity
0.00152
Inclination
98.9982°
RAAN
59.655°
Arg. of periapsis
81.0402°
True anomaly
279.08031°
Mean anomaly
279.2522°
Eccentric anomaly
279.16626°
Mean motion
3.68571 °/min
Orbital period
97.67 mins
BSTAR
0.0023291
Loading maneuver chart data...
Computing Atmospheric mass density...
Loading historical data...
Loading historical data...
Loading historical data...
Loading historical data...
Loading historical data...
Loading historical data...
Loading historical data...

Documentation

Showing up to 5 results
|